Land O' Lakes, WI

6:09 PM CDT on May 22, 2017 (GMT -0500)
Kings Land O'Lakes

Weather History for KLNL - October, 2013

Change the Weather History Date:

Thursday, October 17, 2013

  Actual Average (KEGV) Record (KEGV)
Temperature  
Mean Temperature 39 °F -  
Max Temperature 52 °F 53 °F 68 °F (2012)
Min Temperature 26 °F 33 °F 21 °F (2001)
Degree Days  
Heating Degree Days 26    
Moisture  
Dew Point 34 °F    
Average Humidity 88    
Maximum Humidity 100    
Minimum Humidity 55    
Precipitation  
Precipitation 0.00 in - - ()
Sea Level Pressure  
Sea Level Pressure 29.80 in    
Wind  
Wind Speed 1 mph (NW)    
Max Wind Speed 9 mph    
Max Gust Speed -    
Visibility 7 miles    
Events Fog    
Averages and records for this station are not official NWS values.
T = Trace of Precipitation, MM = Missing Value Source: NWS Daily Summary

Daily Weather History Graph

Daily Weather History Graph

Search for Another Location

Airport or City:

Trip Planner

Search our weather history database for the weather conditions in past years. The results will help you decide how hot, cold, wet, or windy it might be!

Date:

Astronomy

Oct. 17, 2013 Rise Set
Actual Time 7:16 AM CDT 6:06 PM CDT
Civil Twilight 6:46 AM CDT 6:36 PM CDT
Nautical Twilight 6:11 AM CDT 7:11 PM CDT
Astronomical Twilight 5:37 AM CDT 7:46 PM CDT
Moon 5:22 PM CDT (10/17) 5:45 AM CDT (10/17)
Length of Visible Light 11h 50m
Length of Day
10h 49m
Waxing Gibbous, 98% of the Moon is Illuminated
Oct 17
Waxing Gibbous
Oct 18
Full
Oct 26
Last Quarter
Nov 3
New
Nov 9
First Quarter

Hourly Weather History & Observations

Time (CDT) Temp. Windchill Dew Point Humidity Pressure Visibility Wind Dir Wind Speed Gust Speed Precip Events Conditions
12:15 AM 29.3 °F - 29.3 °F 100% 29.87 in 10.0 mi Calm Calm - N/A   Clear
12:35 AM 29.1 °F - 29.1 °F 100% 29.87 in 10.0 mi Calm Calm - N/A   Clear
12:55 AM 28.4 °F - 28.4 °F 100% 29.87 in 10.0 mi Calm Calm - N/A   Clear
1:15 AM 28.2 °F - 28.0 °F 99% 29.87 in 10.0 mi Calm Calm - N/A   Clear
1:35 AM 28.0 °F - 27.5 °F 98% 29.87 in 10.0 mi Calm Calm - N/A   Clear
1:55 AM 28.2 °F - 27.9 °F 99% 29.86 in 7.0 mi Calm Calm - N/A   Clear
2:15 AM 28.4 °F - 28.4 °F 100% 29.86 in 2.5 mi Calm Calm - N/A   Clear
2:35 AM 28.0 °F - 27.9 °F 99% 29.85 in 0.5 mi Calm Calm - N/A Fog Light Freezing Fog
2:55 AM 27.9 °F - 27.9 °F 100% 29.85 in 0.8 mi Calm Calm - N/A   Overcast
3:15 AM 27.5 °F - 27.3 °F 99% 29.84 in 0.5 mi Calm Calm - N/A Fog Light Freezing Fog
3:35 AM 27.1 °F - 26.8 °F 99% 29.84 in 0.5 mi Calm Calm - N/A Fog Light Freezing Fog
3:55 AM 27.5 °F - 27.1 °F 99% 29.84 in 0.5 mi Calm Calm - N/A Fog Light Freezing Fog
4:15 AM 27.1 °F - 26.6 °F 98% 29.83 in 1.5 mi Calm Calm - N/A   Mostly Cloudy
4:35 AM 26.6 °F - 26.1 °F 98% 29.83 in 0.5 mi Calm Calm - N/A Fog Light Freezing Fog
4:55 AM 26.6 °F - 26.1 °F 98% 29.83 in 0.8 mi Calm Calm - N/A   Overcast
5:15 AM 26.8 °F - 26.2 °F 98% 29.83 in 0.2 mi Calm Calm - N/A Fog Light Freezing Fog
5:35 AM 27.0 °F - 26.4 °F 98% 29.83 in 0.5 mi Calm Calm - N/A Fog Light Freezing Fog
5:55 AM 26.8 °F - 26.2 °F 98% 29.83 in 0.5 mi Calm Calm - N/A Fog Light Freezing Fog
6:15 AM 27.1 °F - 26.6 °F 98% 29.83 in 0.5 mi Calm Calm - N/A Fog Light Freezing Fog
6:35 AM 27.0 °F - 26.4 °F 98% 29.83 in 0.5 mi Calm Calm - N/A Fog Light Freezing Fog
6:55 AM 26.6 °F - 26.1 °F 98% 29.82 in 0.8 mi Calm Calm - N/A   Overcast
7:15 AM 27.3 °F - 27.0 °F 99% 29.82 in 10.0 mi Calm Calm - N/A   Overcast
7:35 AM 28.4 °F - 28.2 °F 99% 29.82 in 2.5 mi Calm Calm - N/A   Overcast
7:55 AM 29.8 °F - 29.7 °F 99% 29.82 in 0.2 mi Calm Calm - N/A Fog Light Freezing Fog
8:15 AM 31.1 °F - 31.1 °F 100% 29.82 in 0.2 mi Calm Calm - N/A Fog Light Freezing Fog
8:35 AM 31.8 °F - 31.8 °F 100% 29.82 in 0.2 mi Calm Calm - N/A Fog Fog
8:55 AM 32.0 °F - 32.0 °F 100% 29.82 in 0.5 mi Calm Calm - N/A Fog Fog
9:15 AM 32.5 °F - 32.5 °F 100% 29.82 in 0.5 mi Calm Calm - N/A Fog Fog
9:35 AM 33.3 °F 30.2 °F 33.3 °F 100% 29.82 in 0.5 mi SSW 3.5 mph - N/A Fog Fog
9:55 AM 35.1 °F - 35.1 °F 100% 29.82 in 2.5 mi Calm Calm - N/A   Overcast
10:15 AM 36.3 °F - 36.3 °F 100% 29.82 in 7.0 mi Calm Calm - N/A   Overcast
10:35 AM 36.9 °F - 36.9 °F 100% 29.81 in 7.0 mi Calm Calm - N/A   Overcast
10:55 AM 37.4 °F - 37.4 °F 100% 29.81 in 10.0 mi Calm Calm - N/A   Overcast
11:15 AM 38.3 °F - 38.3 °F 100% 29.81 in 10.0 mi Calm Calm - N/A   Overcast
11:35 AM 39.4 °F - 39.4 °F 100% 29.80 in 10.0 mi Calm Calm - N/A   Overcast
11:55 AM 40.5 °F - 40.5 °F 100% 29.80 in 10.0 mi Calm Calm - N/A   Overcast
12:15 PM 41.9 °F - 41.9 °F 100% 29.79 in 10.0 mi Calm Calm - N/A   Overcast
12:35 PM 43.3 °F 41.7 °F 43.3 °F 100% 29.79 in 10.0 mi West 3.5 mph - N/A   Overcast
12:55 PM 45.7 °F 44.4 °F 41.7 °F 86% 29.77 in 10.0 mi NW 3.5 mph - N/A   Overcast
1:15 PM 47.5 °F - 39.7 °F 75% 29.77 in 10.0 mi Calm Calm - N/A   Overcast
1:35 PM 50.4 °F - 39.7 °F 67% 29.76 in 10.0 mi WNW 4.6 mph - N/A   Mostly Cloudy
1:55 PM 51.1 °F - 37.8 °F 60% 29.76 in 10.0 mi WNW 6.9 mph - N/A   Scattered Clouds
2:15 PM 51.8 °F - 37.6 °F 58% 29.75 in 10.0 mi NW 9.2 mph - N/A   Clear
2:35 PM 52.0 °F - 37.2 °F 57% 29.75 in 10.0 mi WNW 6.9 mph - N/A   Scattered Clouds
2:55 PM 52.0 °F - 36.9 °F 56% 29.75 in 10.0 mi West 4.6 mph - N/A   Mostly Cloudy
3:15 PM 52.2 °F - 36.5 °F 55% 29.74 in 10.0 mi West 4.6 mph - N/A   Mostly Cloudy
3:35 PM 51.8 °F - 36.5 °F 56% 29.74 in 10.0 mi WNW 3.5 mph - N/A   Mostly Cloudy
3:55 PM 52.3 °F - 36.7 °F 55% 29.74 in 10.0 mi NW 5.8 mph - N/A   Overcast
4:15 PM 52.2 °F - 36.9 °F 56% 29.74 in 10.0 mi Calm Calm - N/A   Overcast
4:35 PM 51.3 °F - 36.9 °F 58% 29.74 in 10.0 mi NNW 5.8 mph - N/A   Scattered Clouds
4:55 PM 50.9 °F - 36.9 °F 59% 29.74 in 10.0 mi NW 4.6 mph - N/A   Mostly Cloudy
5:15 PM 50.4 °F - 37.2 °F 61% 29.74 in 10.0 mi Calm Calm - N/A   Scattered Clouds
5:35 PM 49.5 °F - 38.7 °F 66% 29.74 in 10.0 mi Calm Calm - N/A   Mostly Cloudy
5:55 PM 48.9 °F - 38.5 °F 67% 29.74 in 10.0 mi Calm Calm - N/A   Mostly Cloudy
6:15 PM 47.3 °F - 36.9 °F 67% 29.75 in 10.0 mi NW 6.9 mph - N/A   Mostly Cloudy
6:35 PM 46.4 °F 45.2 °F 37.6 °F 71% 29.76 in 10.0 mi NW 3.5 mph - N/A   Overcast
6:55 PM 45.5 °F 44.2 °F 37.8 °F 74% 29.76 in 10.0 mi NW 3.5 mph - N/A   Overcast
7:15 PM 44.8 °F 42.4 °F 37.6 °F 76% 29.77 in 10.0 mi NW 4.6 mph - N/A   Overcast
7:35 PM 44.1 °F 42.5 °F 37.9 °F 79% 29.77 in 10.0 mi NNW 3.5 mph - N/A   Overcast
7:55 PM 42.8 °F - 37.9 °F 83% 29.77 in 10.0 mi Calm Calm - N/A   Scattered Clouds
8:15 PM 41.9 °F 39.0 °F 37.8 °F 85% 29.77 in 10.0 mi NNW 4.6 mph - N/A   Clear
8:35 PM 41.4 °F 39.4 °F 37.8 °F 87% 29.77 in 10.0 mi NNW 3.5 mph - N/A   Mostly Cloudy
8:55 PM 41.0 °F 39.0 °F 37.8 °F 88% 29.77 in 10.0 mi NW 3.5 mph - N/A   Scattered Clouds
9:15 PM 40.6 °F 38.6 °F 37.6 °F 89% 29.77 in 10.0 mi North 3.5 mph - N/A   Clear
9:35 PM 41.0 °F - 38.3 °F 90% 29.77 in 10.0 mi Calm Calm - N/A   Mostly Cloudy
9:55 PM 40.8 °F - 37.4 °F 88% 29.77 in 10.0 mi Calm Calm - N/A   Overcast
10:15 PM 38.7 °F - 37.2 °F 95% 29.77 in 10.0 mi Calm Calm - N/A   Overcast
10:35 PM 38.5 °F - 37.4 °F 96% 29.77 in 10.0 mi Calm Calm - N/A   Overcast
10:55 PM 38.8 °F - 38.1 °F 97% 29.76 in 10.0 mi Calm Calm - N/A   Overcast
11:15 PM 38.3 °F - 37.6 °F 97% 29.76 in 10.0 mi Calm Calm - N/A   Overcast
11:35 PM 38.7 °F - 38.3 °F 99% 29.76 in 10.0 mi Calm Calm - N/A   Overcast
11:55 PM 38.7 °F - 37.9 °F 97% 29.76 in 10.0 mi Calm Calm - N/A   Light Drizzle